This is the latest recevied weather packets stored in our database for station/object KR8N. If no packets are shown the sender has not sent any weather packets the latest 10 day(s).
| Time | Temp. | Humidity | Pressure | Rain* | Wind** | Luminosity | Snow |
|---|---|---|---|---|---|---|---|
| 1777298459 | 13.89° C | 64% | 1024.5 hPa | 0 mm | - | 510 W/m² | - |
| 1777298156 | 13.89° C | 64% | 1024.6 hPa | 0 mm | - | 472 W/m² | - |
| 1777297850 | 13.33° C | 66% | 1024.7 hPa | 0 mm | - | 481 W/m² | - |
| 1777297549 | 13.33° C | 66% | 1024.5 hPa | 0 mm | - | 102 W/m² | - |
| 1777297245 | 12.78° C | 66% | 1024.5 hPa | 0 mm | - | 189 W/m² | - |
| 1777296943 | 12.22° C | 66% | 1024.7 hPa | 0 mm | - | 388 W/m² | - |
| 1777296640 | 12.78° C | 66% | 1024.7 hPa | 0 mm | - | 301 W/m² | - |
| 1777296315 | 12.22° C | 66% | 1024.7 hPa | 0 mm | - | 234 W/m² | - |
| 1777296010 | 12.22° C | 66% | 1024.9 hPa | 0 mm | - | 353 W/m² | - |
| 1777295708 | 12.22° C | 68% | 1024.7 hPa | 0 mm | - | 336 W/m² | - |
| 1777295406 | 11.67° C | 69% | 1024.6 hPa | 0 mm | - | 305 W/m² | - |
| 1777295103 | 12.22° C | 67% | 1024.5 hPa | 0 mm | - | 295 W/m² | - |
| 1777294800 | 11.67° C | 68% | 1024.5 hPa | 0 mm | - | 207 W/m² | - |
| 1777294495 | 11.67° C | 69% | 1024.4 hPa | 0 mm | - | 138 W/m² | - |
| 1777294192 | 11.11° C | 71% | 1024.4 hPa | 0 mm | - | 93 W/m² | - |
| 1777293889 | 11.11° C | 69% | 1024.6 hPa | 0 mm | - | 114 W/m² | - |
| 1777293584 | 11.11° C | 69% | 1024.6 hPa | 0 mm | - | 121 W/m² | - |
| 1777293280 | 11.67° C | 69% | 1024.9 hPa | 0 mm | - | 225 W/m² | - |
| 1777292980 | 11.11° C | 71% | 1024.7 hPa | 0 mm | - | 211 W/m² | - |
| 1777292675 | 11.11° C | 72% | 1024.9 hPa | 0 mm | - | 186 W/m² | - |
| 1777292371 | 11.11° C | 70% | 1025 hPa | 0 mm | - | 159 W/m² | - |
| 1777292068 | 10.56° C | 71% | 1024.9 hPa | 0 mm | - | 151 W/m² | - |
| 1777291764 | 10.56° C | 71% | 1025.1 hPa | 0 mm | - | 134 W/m² | - |
| 1777291461 | 10.56° C | 73% | 1025.4 hPa | 0 mm | - | 118 W/m² | - |
| 1777291158 | 10.56° C | 72% | 1025.1 hPa | 0 mm | - | 105 W/m² | - |
* Rain latest hour (hover to see other rain measurements)
** Current wind speed in m/s (hover to see current wind gust speed)